FW7576 Weather Reports


time (UTC)temp
F
wind
direction
speed
knots
gust
knots
rain 1hr
in
rain 24hr
in
rain mn
in
humidity
%
barometer
mb
20260510001539 62 329 4.3 8.7 0.00 0.00 0.00 36 1007.6
20260510000041 63 63 3.5 9.6 0.00 0.00 0.00 37 1007.3
20260509234538 63 8 4.3 9.6 0.00 0.00 0.00 37 1007.1
20260509233046 63 293 2.6 11.3 0.00 0.00 0.00 37 1007.0
20260509231535 63 304 4.3 12.2 0.00 0.00 0.00 38 1006.9
20260509230035 64 316 5.2 13.9 0.00 0.00 0.00 37 1006.5
20260509224540 64 318 7.0 17.4 0.00 0.00 0.00 36 1006.4
20260509223045 64 326 4.3 16.5 0.00 0.00 0.00 36 1006.2
20260509221542 65 283 4.3 13.9 0.00 0.00 0.00 37 1006.0
20260509220040 64 358 7.0 14.8 0.00 0.00 0.00 38 1005.8
20260509214537 65 7 7.0 15.6 0.00 0.00 0.00 37 1005.5
20260509213036 65 320 7.0 13.9 0.00 0.00 0.00 37 1005.3
20260509211540 65 288 7.8 15.6 0.00 0.00 0.00 36 1005.0
20260509210050 66 290 4.3 20.9 0.00 0.00 0.00 37 1004.9
20260509204537 66 321 5.2 19.1 0.00 0.00 0.00 37 1004.4
20260509203036 66 348 7.8 17.4 0.00 0.00 0.00 40 1004.6
20260509201535 66 343 7.8 17.4 0.00 0.00 0.00 40 1004.3
20260509200043 67 339 6.1 19.1 0.00 0.00 0.00 36 1004.0
20260509194539 66 249 7.0 15.6 0.00 0.00 0.00 36 1003.7
20260509193037 67 309 6.1 13.0 0.00 0.00 0.00 38 1003.4
20260509191537 68 293 8.7 16.5 0.00 0.00 0.00 35 1003.4
20260509190040 68 295 6.1 15.6 0.00 0.00 0.00 37 1003.3
20260509184536 68 245 7.0 18.2 0.00 0.00 0.00 37 1003.1
20260509183039 67 273 6.1 15.6 0.00 0.00 0.00 36 1003.1
20260509181534 67 267 10.4 20.0 0.00 0.00 0.00 36 1003.1
20260509180035 67 287 8.7 21.7 0.00 0.00 0.00 35 1003.1
20260509174536 68 243 6.1 18.2 0.00 0.00 0.00 36 1003.2
20260509173103 66 277 7.0 13.9 0.00 0.00 0.00 35 1003.2
20260509171539 65 233 7.0 16.5 0.00 0.00 0.00 36 1003.3
20260509170049 64 250 7.0 13.0 0.00 0.00 0.00 36 1003.3
20260509164537 63 256 4.3 11.3 0.00 0.00 0.00 36 1003.4
20260509163041 63 221 2.6 7.8 0.00 0.00 0.00 36 1003.4
20260509161542 63 314 4.3 12.2 0.00 0.00 0.00 35 1003.7
20260509160041 63 290 2.6 7.8 0.00 0.00 0.00 34 1003.8
20260509154538 62 276 2.6 8.7 0.00 0.00 0.00 37 1003.7
20260509153036 62 354 4.3 10.4 0.00 0.00 0.00 37 1003.6
20260509151543 62 300 3.5 9.6 0.00 0.00 0.00 42 1003.4
20260509150043 61 274 2.6 7.8 0.00 0.00 0.00 43 1003.1
20260509144539 61 296 1.7 7.8 0.00 0.00 0.00 44 1002.8
20260509143047 61 290 3.5 5.2 0.00 0.00 0.00 44 1002.7
20260509141534 61 231 4.3 11.3 0.00 0.00 0.00 43 1002.8
20260509140043 61 257 4.3 8.7 0.00 0.00 0.00 46 1002.6
20260509134542 60 259 2.6 7.8 0.00 0.00 0.00 51 1002.5
20260509133038 59 240 3.5 9.6 0.00 0.00 0.00 55 1002.6
20260509131545 58 240 2.6 10.4 0.00 0.00 0.00 63 1002.4
20260509130059 57 262 5.2 12.2 0.00 0.00 0.00 65 1002.3
20260509124540 57 250 3.5 11.3 0.00 0.00 0.00 70 1002.4
20260509123103 56 263 3.5 9.6 0.00 0.00 0.00 75 1002.2
20260509121541 55 238 5.2 9.6 0.00 0.00 0.00 77 1002.5
20260509120047 55 252 5.2 11.3 0.00 0.00 0.00 79 1002.2
20260509114551 54 253 4.3 11.3 0.00 0.00 0.00 81 1002.1
20260509113036 53 252 6.1 9.6 0.00 0.00 0.00 82 1001.9
20260509111542 53 246 5.2 12.2 0.00 0.00 0.00 82 1001.7
20260509110049 53 240 6.1 10.4 0.00 0.00 0.00 82 1001.7
20260509104539 53 257 3.5 9.6 0.00 0.00 0.00 82 1001.5
20260509103041 53 271 4.3 7.8 0.00 0.00 0.00 81 1001.2
20260509101552 54 266 4.3 8.7 0.00 0.00 0.00 80 1001.1
20260509100038 54 243 5.2 8.7 0.00 0.00 0.00 80 1001.2
20260509094536 54 229 4.3 11.3 0.00 0.00 0.00 79 1001.4
20260509093036 54 253 4.3 13.9 0.00 0.00 0.00 79 1001.5
20260509091543 54 226 4.3 11.3 0.00 0.00 0.00 79 1001.5
20260509090038 54 260 3.5 11.3 0.00 0.00 0.00 79 1001.6
20260509084536 54 233 4.3 9.6 0.00 0.00 0.00 80 1001.4
20260509083035 54 210 5.2 10.4 0.00 0.00 0.00 81 1001.5
20260509081532 53 208 3.5 7.0 0.00 0.00 0.00 80 1001.4
20260509080043 54 200 4.3 7.8 0.00 0.00 0.00 80 1001.5
20260509074537 54 245 3.5 8.7 0.00 0.00 0.00 78 1001.7
20260509073044 54 222 4.3 9.6 0.00 0.00 0.00 77 1001.9
20260509071543 53 206 3.5 7.0 0.00 0.00 0.00 76 1001.9
20260509070044 53 213 2.6 7.8 0.00 0.00 0.00 75 1002.3
20260509064553 53 261 2.6 7.0 0.00 0.00 0.00 73 1002.5
20260509063038 53 225 2.6 6.1 0.00 0.00 0.00 72 1002.6
20260509061545 52 195 2.6 8.7 0.00 0.00 0.00 72 1002.9
20260509060036 52 252 2.6 7.0 0.00 0.00 0.00 73 1002.9
20260509054538 52 233 2.6 6.1 0.00 0.00 0.00 72 1003.3
20260509053039 52 195 1.7 6.1 0.00 0.00 0.00 73 1003.7
20260509051538 51 193 0.9 7.8 0.00 0.00 0.00 73 1003.9
20260509050037 51 224 0.9 5.2 0.00 0.00 0.00 73 1003.9
20260509044536 51 203 0.9 6.1 0.00 0.00 0.00 73 1003.8
20260509043039 51 245 1.7 7.0 0.00 0.00 0.00 73 1004.2
20260509041540 51 220 1.7 7.0 0.00 0.00 0.00 73 1004.0
20260509040043 51 236 1.7 4.3 0.00 0.00 0.00 73 1004.0
20260509034540 51 158 2.6 6.1 0.00 0.00 0.00 72 1004.2
20260509033044 52 175 1.7 6.1 0.00 0.00 0.00 71 1004.4
20260509031548 52 239 1.7 7.0 0.00 0.00 0.00 70 1004.4
20260509030040 52 217 2.6 7.0 0.00 0.00 0.00 69 1004.6
20260509024539 52 231 2.6 6.1 0.00 0.00 0.00 68 1004.6
20260509023039 52 233 1.7 6.1 0.00 0.00 0.00 66 1004.6
20260509021538 52 162 1.7 4.3 0.00 0.00 0.00 64 1004.7
20260509020038 53 214 1.7 4.3 0.00 0.00 0.00 62 1004.8
20260509014540 53 150 2.6 4.3 0.00 0.00 0.00 61 1004.9
20260509013035 54 162 1.7 4.3 0.00 0.00 0.00 60 1004.9
20260509011538 55 159 1.7 5.2 0.00 0.00 0.00 58 1004.9
20260509010044 56 148 0.9 4.3 0.00 0.00 0.00 55 1005.0
20260509004537 57 170 1.7 5.2 0.00 0.00 0.00 53 1005.0
20260509003042 58 200 2.6 7.8 0.00 0.00 0.00 52 1005.1